sat.trackr.live / text

‹ back to catalog

EXPRESS AMU-7

NORAD 50001 · 2021-123A

PAYLOAD ACTIVE UNKNOWN

§ Identity

Operator
Country
CIS
Launch date
2021-12-13
Launch site
TYMSC
Launch vehicle
Mass (kg)
RCS (m²)

Purposes: comms

External: N2YO · Heavens-Above · Gunter

§ Orbital elements

Epoch: 2026-09-20T03:55:16.662720Z

Period
1,436.10 min
Inclination
0.0264°
Eccentricity
0.0000356
Mean motion
1.00271712 rev/d
Perigee alt
35,785.1 km
Apogee alt
35,788.1 km
Semi-major
42,164.8 km
B*
0.0000e+0
RAAN
251.5296°
Arg perigee
207.7687°
Mean anomaly
103.6011°
Rev number
1,749

§ Raw data

EXPRESS AMU-71 50001U 21123A   26263.16338730 -.00000247  00000+0  00000+0 0  99972 50001   0.0264 251.5296 0000356 207.7687 103.6011  1.00271712 17495

JSON: /api/v1/satellites/50001 · /tle

For live sub-satellite position, see the globe view (requires WebGL).

§ Visibility from observer

Set your observer location to see the next 7 days of passes ≥ 10°. The values pass through the URL so the page stays shareable.

No JS? Fill the form by hand. The geolocation button needs JavaScript.